Starlink 3894

operational
NORAD ID: 52499 Int'l Des: 2022-049 Owner: SPXS Country: US Constellation: starlink
LEOCIRCULAR

About Starlink 3894

Description loading...

Live Position

Loading 3D Globe...

Upcoming Passes

Altitude History

Altitude vs Time

uPlot chart will show altitude changes over time

Two-Line Element Set

1 52499U 22049BA 25306.16851512 .00000390 00000-0 42605-4 0 9994
2 52499 53.2180 261.5875 0001509 90.0822 270.0343 15.08836379193147
Epoch: Nov 2, 2025 • Age: 33 hours

Current Status

Altitude 546.6 km
Velocity 7.59 km/s
Sub-Earth Point -22.35°S, 5.06°W
Launch Date May 6, 2022
Age 3.4 years
Type internet

Technical Details

Classification Payload
Mass 297.00 kg
Dry Mass 220.00 kg
Total Mass 297.00 kg
Length 0.20 m
Diameter 2.80 m
Span 9.00 m
Shape Box + pan
Manufacturer SPXS
Bus Type Starlink
Phase Status In Orbit
Owner/State SPXS/US

Large Constellations

Loading constellations...